Regional Weather Roundup
Issued by NWS Wakefield, VA

Home | Current Version | Previous Version | Text Only | Print | Product List | Glossary Off
Versions: 1 2 3 4 5 6 7 8 9 10 11 12 13 14 15 16 17 18 19 20 21 22 23 24 25 26 27 28 29 30 31 32 33 34 35 36 37 38 39 40 41 42 43 44 45 46 47 48 49 50

000
ASUS41 KAKQ 051114
RWRAKQ

REGIONAL WEATHER ROUNDUP
NATIONAL WEATHER SERVICE WAKEFIELD VA
600 AM EST FRI FEB 05 2016

Note: "fair" indicates few or no clouds below 12,000 feet with no
significant weather and/or obstructions to visibility. * = Denotes
station may not report precipitation (e.g., rain,snow,etc.),
thunder or fog.

VAZ042-051-052>054-056-051200-
NORTHERN VIRGINIA

CITY           SKY/WX    TMP DP  RH WIND       PRES   REMARKS
WASH NATIONAL  FLURRIES  39  29  67 NW18G26   30.12R
DULLES         CLOUDY    37  25  61 NW16G28   30.14R
FORT BELVOIR   FAIR      39  27  60 NW15G25   30.12F
QUANTICO       CLOUDY    40  27  59 N16G30    30.14F
FREDERICKSBRG* CLOUDY    37  29  70 NW17G26   30.12S
STAFFORD*      CLOUDY    37  27  68 NW16G31   30.16F
WARRENTON      CLOUDY    38  28  66 NW15G23   30.14F
CULPEPER*      CLOUDY    37  22  56 NW14G25   30.16F
MANASSAS*      CLOUDY    37  28  70 NW14      30.15F
LEESBURG*      CLOUDY    37  30  75 N14G22    30.16R
WINCHESTER     CLOUDY    34  23  64 NW23G32   30.16R WCI  22
FRONT ROYAL*   CLOUDY    34  19  55 NW14G22   30.16R WCI  24
LURAY*         CLOUDY    34  23  64 W5        30.17R
$$

VAZ048-049-060>072-079>083-051200-
CENTRAL AND SOUTH CENTRAL VIRGINIA

CITY           SKY/WX    TMP DP  RH WIND       PRES   REMARKS
RICHMOND       FLURRIES  34  32  92 NW13      30.11R WCI  25
CHESTERFIELD*  CLOUDY    36  21  55 N13G20    30.11S
PETERSBURG*    CLOUDY    36  33  88 NW13G22   30.13R
HANOVER        CLOUDY    34  31  88 VRB7      30.15R
TAPPAHANNOCK*  LGT SNOW  34  34 100 N7G18     30.13R
QUINTON*       CLOUDY    33  32  96 N9G20     30.08F
CHARLOTTSVILLE CLOUDY    37  23  56 NW12G18   30.13R
GORDONSVILLE*  CLOUDY    36  29  76 NW3       30.12F
ORANGE*        FLURRIES  37  28  70 NW3       30.14F
LOUISA*        DRIZZLE   36  34  93 NW6       30.11S
BUMPASS*       CLOUDY    35  30  82 N6        30.09F
FARMVILLE*     CLOUDY    36  36 100 CALM      30.14R
CREWE*         CLOUDY    34  34 100 N5        30.13R
FORT PICKETT*  CLOUDY    33  33  98 N9        30.11R
CHASE CITY*    CLOUDY    35  33  94 NW5       30.14R
CLARKSVILLE*   CLOUDY    36  36 100 N5        30.14R
SOUTH HILL*    CLOUDY    34  33  95 N12G20    30.17S
LAWRENCEVILLE* CLOUDY    35  34  96 N12G17    30.10S
EMPORIA*       MIX PCPN  34  32  93 NW13G25   30.12R WCI  25
$$

VAZ088>098-051200-
SOUTHEAST VIRGINIA

CITY           SKY/WX    TMP DP  RH WIND       PRES   REMARKS
NORFOLK        LGT SNOW  38  34  85 N20G30    30.03R FOG
VIRGINIA BEACH RAIN      41  35  79 N28G41    29.98R
NORFOLK NAVAL  LGTSLEET  37  33  85 N20G30    30.04R FOG
WEST POINT*    CLOUDY    33  32  96 NW10G20   30.07F
SALUDA*        CLOUDY    34  34 100 NW15G23   30.06R WCI  24
NEWPORT NEWS   LGT SNOW  35  32  88 N20G29    30.03F FOG     WCI  24
LANGLEY AFB    LGT RAIN  36  32  87 N15G28    30.02R
FORT EUSTIS    RAIN      35  35  99 N13G25    30.02S
WILLIAMSBURG*  CLOUDY    36  36 100 N8G26     30.05F
HR EXEC AP*    CLOUDY    37  34  87 N13G28    30.04S
FRANKLIN*      CLOUDY    35  33  92 N12G18    30.07R
US460-WAKEFLD  LGT RAIN  36  32  85 N12G20    30.07S
$$

VAZ020-022-025-037-045-051200-
WEST CENTRAL AND SOUTHWEST VIRGINIA

CITY           SKY/WX    TMP DP  RH WIND       PRES   REMARKS
STAUNTON*      CLOUDY    36  20  52 N14       30.18R
WAYNESBORO*    PTSUNNY   31  16  52 NW13G18   30.14R WCI  21
HOT SPRINGS VA FLURRIES  21  17  85 NW14G25   30.02R WCI   8
LYNCHBURG      CLOUDY    34  19  54 VRB7G18   30.17R
DANVILLE       CLOUDY    37  27  67 NW7       30.17R
SOUTH BOSTON*  CLOUDY    36  35  95 N6        30.17R
MARTINSVILLE   CLOUDY    33  19  56 N13G20    30.21R WCI  24
ROANOKE        CLOUDY    32  17  54 NW21G29   30.21R WCI  20
BLACKSBURG     CLOUDY    28  19  69 NW9G18    30.20R
DUBLIN*        CLOUDY    29  19  64 W14G21    30.20R WCI  19
MARION*        FAIR      25  13  60 W14G25    30.22R WCI  13
HILLSVILLE*    FAIR      25  15  66 NW21G26   30.13R WCI  10
RICHLANDS*     FAIR      23  11  61 NW7       30.24R
WISE*          CLOUDY    23  14  68 NW9       30.26R
ABINGDON*      FAIR      28  13  53 NW7       30.28R
$$

MDZ021>025-VAZ099-100-051200-
SOUTHERN MARYLAND AND THE DELMARVA PENINSULA

CITY           SKY/WX    TMP DP  RH WIND       PRES   REMARKS
PATUXENT RIVER LGT SNOW  34  31  88 N18       30.08R FOG     WCI  23
BAY BRIDGE APT   N/A     36  34  93 N14G23    30.09F
LEONARDTOWN    CLOUDY    32  32 100 NW5       30.13R
DOVER          LGT SNOW  32  32 100 N15       30.06S FOG     WCI  22
GEORGETOWN     LGT SNOW  33  32  96 N9        30.07R FOG
EASTON         LGT SNOW  34  34 100 N8        30.12S
CAMBRIDGE      NOT AVBL
SALISBURY      LGT SNOW  33  32  96 N16       30.04R FOG     WCI  23
OCEAN CITY     LGT SNOW  35  33  92 N20G28    30.00S FOG     WCI  24
WALLOPS ISLAND HVY RAIN  34  32  92 NW16G26   30.03R FOG     WCI  24
ACCOMACK*      LGT SNOW  34  32  93 N16G35    30.01R WCI  23
$$

NCZ012>017-030>032-051200-
NORTH CENTRAL AND EASTERN NORTH CAROLINA

CITY           SKY/WX    TMP DP  RH WIND       PRES   REMARKS
ROANOKE RAPIDS CLOUDY    36  34  93 N14G25    30.09R
RALEIGH        LGT RAIN  37  34  89 N8        30.15R
ELIZABETH CITY HVY RAIN  39  37  92 N25G32    29.98R FOG
AHOSKIE*       RAIN      36  34  91 N12G21    30.10R
EDENTON*       LGT RAIN  40  39  97 N21G28    30.00R
CURRITUCK*     NOT AVBL
KILL DEVIL HLS RAIN      40  39  97 N10G26    29.93R
MANTEO         RAIN      40  40  99 N23G37    29.94R
CAPE HATTERAS  LGT RAIN N/A N/A N/A N14G29    29.90R
TARBORO*       CLOUDY    38  35  87 N14G22    30.10R
GOLDSBORO      CLOUDY    41  41 100 N14G23    30.09R
WASHINGTON     LGT RAIN  38  36  91 N10       30.06R
GREENVILLE     DRIZZLE   37  36  93 N16G26    30.08R
NEW BERN       LGT RAIN  41  38  89 N20G28    30.02R
WILMINGTON     CLOUDY    44  40  85 NW18G25   30.06R
$$

VAZ048-051200-
ELSEWHERE

CITY           SKY/WX    TMP DP  RH WIND       PRES   REMARKS
HARRISBURG PA  FLURRIES  38  24  57 N13       30.11S
BALTIMORE      LGT SNOW  35  33  92 CALM      30.11R FOG
ANNAPOLIS      MIX PCPN  36  34  92 N9        30.10F
ANDREWS AFB    FAIR      36  32  87 NW13      30.08F
PHILADELPHIA   LGT SNOW  36  33  88 N8        30.09F FOG
HENDERSON NC   LGT RAIN  36  34  92 NW8       30.14R
GREENSBORO     CLOUDY    37  23  56 NW12G18   30.15R
ROCKY MOUNT    CLOUDY    39  34  82 N20G26    30.11R
$$

VAZ100-051200-
MARINE

STATION/POSITION TIME  TEMP    WIND        PRES    WAVE   SWELL
                       AIR SEA DIR/SP/G            HT/PER HT/PER
                 (UTC) (F)     (DEG/KT/KT) (MB)    (FT/S) (FT/S)
BRANDYWINE LGT   1000   33     360/ 29/ 32 1015.6F
CAPE MAY NJ      1000   35 45  360/  6/ 16 1015.2R
LEWES DE         1000   35 43  350/ 25/ 29 1016.4R
15NM E FENWICK I 1050   39 45              1014.4R   7/ 6
OCEAN-CITY-INLET 1000   37 42  360/ 19/ 24 1014.9R
WACHAPREAGUE VA  1000   37 49  320/  7/ 14 1015.8R
GOOSES REEF MD   1100   36 40  360/ 21/ 25 1019.7F   3/ 3
COVE POINT MD    1000   33     350/ 30/ 32 1018.4F
SOLOMONS ISLAND  1000   33     330/ 12/ 18   N/A
BISHOPS HEAD MD  1000   33 42  330/ 16/ 19 1016.5R
POTOMAC MD       1100   34 41  340/ 16/ 21 1017.6R   2/ 3
CAMBRIDGE MD     1000   33 41  320/ 17/ 21 1017.4R
LEWISETTA VA     1000   34     350/ 17/ 25 1017.7R
RAPPAHANNOCK LGT 1000          330/ 35/ 41 1015.5R
STINGRAY PT      1100   35 42  340/ 23/ 27 1017.3R   3/ 3
YORK RVR RNG VA  1000   37     340/ 28/ 32 1016.0R
YORKTOWN VA      1000   37     330/ 23/ 34 1016.8R
JAMESTOWN VA     1100   34 43  340/ 14/ 19   N/A     1
DOMINION TERM VA 1000   38     350/ 20/ 31 1016.8R
KIPTOPEKE VA     1000      44  350/ 23/ 32   N/A
CHES BAY BRIDGE  1000   38     320/ 27/ 32 1015.3R
CAPE HENRY VA    1000   38     330/ 32/ 36   N/A
CHESAPEAKE LGHT  1000   41     350/ 31/ 34 1014.3S
WILLOUBY STN VA  1000   37     330/ 21/ 27 1017.2R
CAPE HENRY BUOY  1028      47                N/A     7/ 6
1ST LANDING BUOY 1100      43                N/A     5/ 4
CAPE CHARLES BUO 1026      46                N/A     6/ 5   2/ 8
OFFSHORE WE BUOY 1021      49                N/A     8/ 6   2/10
64NM E OF VA BCH 1050   46 53  340/ 29/ 37 1010.8R   7/ 7
DUCK PIER NC     1000   41 46  350/ 31/ 36 1011.7F
44100 DUCK FRF   1024      47                N/A     8/ 6
44056 DUCK FRF   1011      45                N/A     7/ 6
OREGON INLET NC  1000   41     330/ 22/ 30 1012.5R
HATTERAS NC      1000   45 58  340/ 28/ 33 1010.4R
DIAMOND SHLS NC  1050      70  340/ 29/ 37 1010.5R  10/ 8
$$



USA.gov is the U.S. government's official web portal to all federal, state and local government web resources and services.